Stations météo

Publicité
Strasbourg, France (7190): Température de l'air & dewpoint: 19.07.2017 10:00:00 - 25.07.2017 10:00:00 (CEST)Strasbourg, France (7190): Température de l'air 5cm: 19.07.2017 10:00:00 - 25.07.2017 10:00:00 (CEST)Strasbourg, France (7190): Température de l'air -20cm & Température de l'air -100cm: 19.07.2017 10:00:00 - 25.07.2017 10:00:00 (CEST)Strasbourg, France (7190): Vitesse du vent & gusts: 19.07.2017 10:00:00 - 25.07.2017 10:00:00 (CEST)Strasbourg, France (7190): Direction du vent: 19.07.2017 10:00:00 - 25.07.2017 10:00:00 (CEST)Strasbourg, France (7190): reduced air pressure: 19.07.2017 10:00:00 - 25.07.2017 10:00:00 (CEST)Strasbourg, France (7190): visibility: 19.07.2017 10:00:00 - 25.07.2017 10:00:00 (CEST)Strasbourg, France (7190): Ensoleillement: 19.07.2017 10:00:00 - 25.07.2017 10:00:00 (CEST)Strasbourg, France (7190): Quantités de précipitations: 19.07.2017 10:00:00 - 25.07.2017 10:00:00 (CEST)
Date & Time tt [°C] td [°C] tt 5cm [°C] tt -20cm [°C] tt -100cm [°C] ff [km/h] ff [knt] fx [km/h] fx [knt] dd ppp [hPa] vv [km] sd [min] rr [mm]
25.07.2017 10:00:00 14,8 12,7 - - - 8 4 16 9 WNW 1012,2 6 - 1,0
25.07.2017 09:00:00 15,6 12,2 15,4 21,3 22,0 9 5 21 11 WNW 1012,0 48 0 0,0
25.07.2017 08:00:00 15,0 12,7 14,2 21,5 22,0 11 6 18 10 W 1011,8 56 0 0,0
25.07.2017 07:00:00 14,1 12,3 13,4 21,6 22,0 9 5 15 8 SW 1011,9 54 0 0,0
25.07.2017 06:00:00 14,1 12,1 13,0 21,8 22,0 12 7 21 11 WSW 1011,9 20 0 0,0
25.07.2017 05:00:00 13,7 12,1 13,1 22,0 22,0 6 4 11 6 S 1012,0 37 0 0,0
25.07.2017 04:00:00 13,6 11,8 11,9 22,3 22,1 6 3 10 6 SSW 1012,2 49 0 0,0
25.07.2017 03:00:00 13,6 11,6 12,3 22,5 22,0 5 3 20 11 W 1012,5 60 0 0,0
25.07.2017 02:00:00 14,2 13,1 13,7 22,7 22,1 8 5 13 7 W 1012,5 52 0 0,0
25.07.2017 01:00:00 14,3 13,3 13,8 23,0 22,1 8 5 14 8 SW 1012,3 17 0 0,0
25.07.2017 00:00:00 14,5 13,5 14,1 23,1 22,0 9 5 19 10 S 1012,2 26 0 0,0
24.07.2017 23:00:00 14,7 13,4 14,3 23,3 22,1 10 6 22 12 SSW 1012,1 41 0 0,0
24.07.2017 22:00:00 14,9 13,6 14,6 23,5 22,1 6 3 14 8 SSE 1012,1 53 0 0,0
24.07.2017 21:00:00 15,3 13,8 14,7 23,7 22,1 7 4 16 8 S 1012,1 42 4 0,2
24.07.2017 20:00:00 15,9 13,0 14,7 23,8 22,1 8 5 15 8 SW 1011,6 17 0 0,2
24.07.2017 19:00:00 16,2 13,1 - - - 11 6 21 11 W 1012,0 15 - 0,4
24.07.2017 18:00:00 17,9 13,4 17,9 23,9 22,1 12 7 26 14 W 1011,7 58 2 0,0
24.07.2017 17:00:00 16,4 13,1 14,0 23,8 22,1 3 2 45 24 SSE 1011,7 60 0 5,4
24.07.2017 16:00:00 18,8 12,8 16,2 23,7 22,1 16 9 32 17 W 1011,3 15 22 0,2
24.07.2017 15:00:00 19,0 11,3 20,8 23,5 22,1 18 10 32 18 WNW 1010,8 35 2 0,0
24.07.2017 14:00:00 19,9 10,9 21,4 23,4 22,1 21 12 33 18 W 1010,9 25 5 0,0
24.07.2017 13:00:00 18,0 12,0 18,9 23,3 22,1 16 9 36 20 WNW 1011,1 49 0 0,0
24.07.2017 12:00:00 18,5 11,1 20,2 23,2 22,1 24 13 37 20 W 1011,0 56 19 0,0
24.07.2017 11:00:00 19,2 11,0 20,7 23,2 22,1 23 13 40 21 W 1010,6 19 49 0,0
24.07.2017 10:00:00 17,2 11,9 17,0 23,3 22,1 22 12 42 23 W 1010,6 49 34 0,0
24.07.2017 09:00:00 16,0 12,9 14,3 23,4 22,1 26 14 49 26 WNW 1009,7 48 3 1,2
24.07.2017 08:00:00 16,8 14,3 15,4 23,6 22,1 18 10 32 17 SSW 1008,1 59 0 0,0
24.07.2017 07:00:00 15,9 14,3 15,0 23,8 22,1 6 3 21 11 SSW 1008,2 60 0 1,0
24.07.2017 06:00:00 16,5 13,2 15,1 24,0 22,1 10 6 17 9 S 1009,1 60 0 0,0
24.07.2017 05:00:00 16,8 13,1 15,3 24,2 22,1 10 5 17 9 S 1009,9 35 0 0,0
24.07.2017 04:00:00 16,6 13,3 15,0 24,4 22,1 8 4 14 8 S 1010,8 60 0 0,0
24.07.2017 03:00:00 17,2 12,9 16,8 24,6 22,1 5 3 13 7 SE 1011,9 60 0 0,0
24.07.2017 02:00:00 17,6 12,5 17,1 24,8 22,1 6 3 10 6 SE 1013,0 60 0 0,0
24.07.2017 01:00:00 18,2 11,7 17,3 25,0 22,1 3 2 15 8 SSW 1014,0 60 0 0,0
24.07.2017 00:00:00 18,5 11,6 17,6 25,2 22,1 8 5 14 8 SE 1014,5 60 0 0,0
23.07.2017 23:00:00 18,7 11,3 17,1 25,4 22,1 10 5 13 7 SSW 1015,3 60 0 0,0
23.07.2017 22:00:00 19,5 11,3 18,6 25,6 22,1 9 5 17 9 SW 1015,6 15 0 0,0
23.07.2017 21:00:00 21,1 9,7 20,4 25,6 22,1 13 7 23 12 WSW 1015,4 60 0 0,0
23.07.2017 20:00:00 21,9 9,4 21,9 25,6 22,0 18 10 31 17 W 1015,5 59 0 0,0
23.07.2017 19:00:00 22,7 9,1 23,3 25,6 22,1 17 9 32 17 WSW 1015,6 50 8 0,0
23.07.2017 18:00:00 23,2 9,2 24,4 25,3 22,0 19 11 43 23 W 1016,1 37 30 0,0
23.07.2017 17:00:00 23,3 11,4 24,5 25,2 22,1 13 7 31 17 WSW 1016,3 60 16 0,0
23.07.2017 16:00:00 23,3 10,0 23,9 25,0 22,0 18 10 35 19 W 1016,8 60 11 0,0
23.07.2017 15:00:00 22,1 9,9 24,0 24,8 22,1 20 11 40 21 SW 1017,3 58 0 0,0
23.07.2017 14:00:00 22,1 9,6 24,0 24,6 22,0 22 12 39 21 SW 1017,5 50 15 0,0
23.07.2017 13:00:00 22,8 9,2 24,2 24,4 22,0 26 14 46 25 SW 1017,8 27 39 0,0
23.07.2017 12:00:00 21,3 9,5 23,1 24,3 22,0 28 15 45 24 SW 1018,0 28 32 0,0
23.07.2017 11:00:00 21,0 9,3 22,6 24,4 22,0 27 14 45 24 SW 1017,9 24 41 0,0
23.07.2017 10:00:00 20,1 10,5 21,0 24,4 22,0 17 9 32 17 WSW 1017,9 45 15 0,0
23.07.2017 09:00:00 19,2 10,5 19,7 24,7 22,0 21 11 33 18 WSW 1018,1 52 17 0,0
23.07.2017 08:00:00 19,5 12,0 18,4 24,9 22,0 9 5 33 18 SSW 1017,4 13 19 0,0
23.07.2017 07:00:00 18,7 11,7 18,0 25,2 22,0 16 8 37 20 SSW 1016,9 52 11 0,0
23.07.2017 06:00:00 18,9 13,1 17,8 25,4 22,0 21 11 32 17 WSW 1016,5 58 0 0,0
23.07.2017 05:00:00 18,7 15,0 17,1 25,7 22,0 11 6 24 13 SW 1015,9 60 0 0,0
23.07.2017 04:00:00 19,1 15,6 17,0 25,9 22,0 10 5 24 13 SSW 1015,3 13 0 0,6
23.07.2017 03:00:00 20,6 15,4 20,1 26,2 22,0 9 5 29 16 W 1015,0 60 0 0,0
23.07.2017 02:00:00 20,6 14,9 19,9 26,5 22,1 17 9 31 17 W 1014,8 60 0 0,0
23.07.2017 01:00:00 22,1 14,7 20,9 26,8 22,0 21 12 29 16 WNW 1014,3 60 0 0,0
23.07.2017 00:00:00 21,6 16,1 21,0 27,1 22,0 11 6 24 13 S 1013,7 60 0 0,0
22.07.2017 23:00:00 22,2 15,8 21,8 27,4 22,0 19 10 33 18 SSW 1013,2 60 0 0,0
22.07.2017 22:00:00 22,5 15,8 22,0 27,6 22,0 16 9 30 16 S 1012,0 60 0 0,0
22.07.2017 21:00:00 24,6 15,2 24,1 27,7 22,0 16 9 31 17 S 1011,7 60 0 0,0
22.07.2017 20:00:00 26,5 17,0 26,4 27,7 22,0 17 9 35 19 S 1011,8 59 23 0,0
22.07.2017 19:00:00 27,4 16,1 27,6 27,5 22,0 19 10 29 16 S 1011,9 50 18 0,0
22.07.2017 18:00:00 29,1 14,1 30,2 27,2 22,0 13 7 32 17 S 1011,5 15 52 0,0
22.07.2017 17:00:00 28,7 17,2 31,6 26,7 22,0 13 7 32 17 S 1011,7 48 58 0,0
22.07.2017 16:00:00 28,5 17,4 32,0 26,1 22,0 16 8 29 16 S 1012,0 45 60 0,0
22.07.2017 15:00:00 27,5 17,9 28,9 25,6 22,0 9 5 18 10 SSE 1012,7 49 45 0,0
22.07.2017 14:00:00 26,4 17,7 27,5 25,2 22,0 9 5 24 13 SSE 1013,1 59 47 0,0
22.07.2017 13:00:00 25,6 17,3 27,9 24,8 22,0 9 5 21 12 SW 1013,4 20 16 0,0
22.07.2017 12:00:00 24,9 18,6 28,2 24,4 22,0 6 3 18 10 S 1013,6 51 45 0,0
22.07.2017 11:00:00 24,1 18,1 28,2 24,2 22,0 10 5 17 9 S 1013,9 43 60 0,0
22.07.2017 10:00:00 22,2 18,2 24,6 24,2 22,0 12 7 23 12 S 1014,0 45 51 0,0
22.07.2017 09:00:00 21,3 18,1 23,0 24,3 22,0 13 7 19 10 S 1013,8 54 58 0,0
22.07.2017 08:00:00 19,1 17,6 18,6 24,5 22,0 9 5 14 8 S 1013,6 13 40 0,0
22.07.2017 07:00:00 18,0 17,2 17,0 24,7 22,0 8 4 14 8 SSW 1013,5 13 1 0,0
22.07.2017 06:00:00 17,4 16,6 17,0 25,0 22,0 5 3 12 6 S 1013,2 9 0 0,0
22.07.2017 05:00:00 17,8 17,0 17,3 25,2 22,0 7 4 13 7 S 1012,8 7 0 2,7
22.07.2017 04:00:00 17,7 16,7 17,4 25,5 22,0 3 2 11 6 SSW 1012,8 10 0 0,0
22.07.2017 03:00:00 18,0 16,8 17,7 25,8 22,0 6 4 14 8 S 1012,7 20 0 0,0
22.07.2017 02:00:00 18,1 16,9 17,7 26,1 22,0 6 3 18 10 SSE 1012,6 20 0 0,0
22.07.2017 01:00:00 18,2 17,0 17,8 26,5 22,0 12 6 22 12 S 1012,6 46 0 0,0
22.07.2017 00:00:00 17,9 16,9 17,3 26,8 22,0 2 1 22 12 S 1012,8 43 0 0,0
21.07.2017 23:00:00 17,9 17,1 17,3 27,4 22,0 9 5 22 12 SSW 1012,2 16 0 0,2
21.07.2017 22:00:00 18,4 17,1 17,4 28,0 22,0 10 6 47 25 SE 1011,6 8 0 18,4
21.07.2017 21:00:00 19,1 16,9 17,9 28,3 22,0 44 24 79 43 S 1011,3 6 0 0,4
21.07.2017 20:00:00 26,8 17,3 26,1 28,2 22,0 5 3 20 11 NNW 1009,4 58 0 0,0
21.07.2017 19:00:00 28,8 16,7 29,2 27,9 22,0 7 4 20 11 NE 1009,1 27 31 0,0
21.07.2017 18:00:00 29,9 16,0 34,2 27,4 22,0 10 5 22 12 N 1008,9 39 60 0,0
21.07.2017 17:00:00 29,4 16,6 34,4 26,8 22,0 12 7 24 13 NE 1009,4 36 60 0,0
21.07.2017 16:00:00 28,7 16,9 34,2 26,0 22,0 11 6 31 17 NE 1010,3 56 60 0,0
21.07.2017 15:00:00 28,5 15,8 33,7 25,3 22,0 10 6 26 14 N 1011,1 31 60 0,0
21.07.2017 14:00:00 27,5 16,1 32,4 24,6 22,0 5 3 25 14 NNW 1011,8 51 60 0,0
21.07.2017 13:00:00 26,3 15,0 31,8 24,1 22,0 11 6 21 12 NNE 1012,5 29 60 0,0
21.07.2017 12:00:00 25,2 14,3 27,1 23,8 22,0 9 5 20 11 NNE 1013,2 49 42 0,0
21.07.2017 11:00:00 23,9 14,9 26,4 23,6 22,0 11 6 19 10 N 1013,9 46 44 0,0
21.07.2017 10:00:00 21,3 14,5 23,7 23,5 22,0 6 3 13 7 N 1014,6 58 35 0,0
21.07.2017 09:00:00 19,5 14,3 19,7 23,6 22,0 5 3 10 5 NE 1014,8 59 13 0,0
21.07.2017 08:00:00 17,8 14,3 16,9 23,8 22,0 2 1 6 4 N 1014,7 60 5 0,0
21.07.2017 07:00:00 16,4 13,9 16,1 24,0 22,0 3 1 7 4 N 1014,8 51 0 0,0
21.07.2017 06:00:00 16,4 14,8 15,8 24,2 21,9 2 1 7 4 N 1015,1 54 0 0,0
21.07.2017 05:00:00 16,4 14,9 15,5 24,5 21,9 0 0 5 3 N 1014,9 44 0 0,0
21.07.2017 04:00:00 16,9 15,6 15,2 24,7 21,9 5 3 11 6 N 1014,8 43 0 0,0
21.07.2017 03:00:00 16,6 15,3 15,2 25,0 21,9 4 2 8 5 SSE 1015,0 42 0 0,0
21.07.2017 02:00:00 16,9 15,4 15,6 25,3 21,9 4 2 11 6 S 1014,8 27 0 0,0
21.07.2017 01:00:00 17,8 15,8 16,2 25,5 21,9 8 4 10 5 WSW 1014,7 39 0 0,0
21.07.2017 00:00:00 19,9 16,7 19,0 25,8 21,9 7 4 18 10 SW 1014,4 50 0 0,0
20.07.2017 23:00:00 21,5 17,1 18,2 26,0 21,9 11 6 19 11 SW 1014,3 57 0 0,0
20.07.2017 22:00:00 20,2 16,2 18,6 26,2 21,8 4 2 16 9 SSW 1013,9 2,9 0 0,0
20.07.2017 21:00:00 22,9 16,2 22,1 26,3 21,9 12 7 21 11 SW 1012,8 60 25 0,0
20.07.2017 20:00:00 23,6 18,3 25,9 26,3 21,8 11 6 21 11 S 1012,5 57 58 0,0
20.07.2017 19:00:00 24,0 18,0 24,1 26,3 21,8 13 7 21 11 SSE 1012,1 56 37 0,0
20.07.2017 18:00:00 23,5 17,9 23,2 26,3 21,8 7 4 16 9 S 1012,5 59 2 0,0
20.07.2017 17:00:00 23,4 18,3 18,3 26,5 21,8 13 7 26 14 W 1013,0 41 21 0,8
20.07.2017 16:00:00 19,4 16,6 17,2 26,5 21,8 14 7 73 40 SSW 1013,4 21 1 15,0
20.07.2017 15:00:00 25,1 16,8 27,4 26,2 21,8 11 6 22 12 S 1012,3 56 29 0,0
20.07.2017 14:00:00 25,0 18,0 24,5 26,1 21,8 11 6 23 12 SE 1012,8 43 34 0,0
20.07.2017 13:00:00 22,2 17,8 20,9 26,1 21,7 6 4 21 11 SSE 1013,5 60 0 0,0
20.07.2017 12:00:00 21,6 17,8 20,4 26,2 21,7 4 2 22 12 WSW 1013,5 31 0 0,0
20.07.2017 11:00:00 21,4 18,2 19,1 26,3 21,7 11 6 22 12 SSW 1013,2 24 0 1,8
20.07.2017 10:00:00 22,0 16,7 19,9 26,5 21,7 13 7 29 16 S 1012,6 43 6 0,0
20.07.2017 09:00:00 22,9 15,0 23,7 26,7 21,7 16 9 34 18 S 1012,5 55 11 0,0
20.07.2017 08:00:00 22,4 15,0 21,9 27,0 21,7 17 9 29 16 S 1012,0 59 2 0,0
20.07.2017 07:00:00 22,1 15,4 21,3 27,3 21,7 16 9 26 14 S 1011,9 59 0 0,0
20.07.2017 06:00:00 22,5 14,9 20,4 27,6 21,7 16 9 34 19 S 1011,6 60 0 0,0
20.07.2017 05:00:00 22,4 16,0 19,2 27,9 21,7 11 6 24 13 SSW 1011,3 59 0 0,0
20.07.2017 04:00:00 21,4 16,6 18,6 28,2 21,6 9 5 21 11 S 1011,0 59 0 0,6
20.07.2017 03:00:00 23,9 14,6 23,1 28,5 21,6 11 6 25 13 S 1011,0 60 0 0,0
20.07.2017 02:00:00 24,1 14,5 23,3 28,8 21,6 7 4 19 11 SSW 1010,7 60 0 0,0
20.07.2017 01:00:00 24,6 14,7 23,4 29,1 21,6 12 7 23 13 SSW 1010,4 60 0 0,0
20.07.2017 00:00:00 24,7 13,9 22,9 29,4 21,6 11 6 21 12 S 1010,1 60 0 0,0
19.07.2017 23:00:00 26,8 12,4 25,4 29,7 21,6 8 5 22 12 SSW 1010,1 60 0 0,0
19.07.2017 22:00:00 27,4 12,2 24,9 29,9 21,6 13 7 18 10 SW 1010,0 47 0 0,0
19.07.2017 21:00:00 28,7 13,8 27,9 29,9 21,6 15 8 21 11 SW 1009,5 60 0 0,0
19.07.2017 20:00:00 31,7 13,5 32,5 29,8 21,5 13 7 23 12 SSW 1008,9 50 58 0,0
19.07.2017 19:00:00 33,0 13,1 36,0 29,6 21,6 16 9 27 15 WNW 1008,9 51 56 0,0
19.07.2017 18:00:00 33,6 12,6 34,5 29,2 21,5 14 8 34 18 SW 1008,7 53 30 0,0
19.07.2017 17:00:00 34,8 13,6 39,4 28,7 21,5 10 6 29 16 SW 1009,3 11 60 0,0
19.07.2017 16:00:00 33,8 16,6 37,2 28,1 21,5 11 6 23 12 SSW 1010,1 6 54 0,0
19.07.2017 15:00:00 32,9 15,0 38,8 27,5 21,5 10 6 23 12 S 1010,3 4,9 60 0,0
19.07.2017 14:00:00 32,0 15,9 36,8 26,9 21,5 15 8 32 18 S 1010,8 4,2 60 0,0
19.07.2017 13:00:00 31,0 16,6 34,4 26,5 21,4 16 8 29 15 S 1011,1 4,6 50 0,0
19.07.2017 12:00:00 30,4 15,7 34,8 26,1 21,4 14 7 31 17 SSE 1011,3 4,3 60 0,0
19.07.2017 11:00:00 28,7 17,2 32,6 26,0 21,4 13 7 26 14 S 1012,1 3,2 60 0,0
19.07.2017 10:00:00 26,6 16,5 28,7 26,0 21,4 16 8 29 16 S 1012,8 6 60 0,0

tt = Température de l'air
td = dewpoint
tt 5cm = Température de l'air 5cm
tt -20cm = Température de l'air -20cm
tt -100cm = Température de l'air -100cm
ff = Vitesse du vent
fx = gusts
dd = Direction du vent
ppp = reduced air pressure
vv = visibility
sd = Ensoleillement
rr = Quantités de précipitations

stations d'obs. à proximité